�N����,����,�~����,�C��,���x,�C��,����,���ϕ���,�ő�u�ԕ���,�ő厞����,���˗�,�I�_���x,�n�����x,�ő啗���N��,DTYPE
"23/12/30","00:10",0.0,1.6,90.6,1017.1,308.0,1.2,1.6,309.6,0.00,0.3,7.2,"00:00:32",1
"23/12/30","00:20",0.0,1.3,90.8,1017.3,299.6,1.0,1.8,322.6,0.00,0.0,7.2,"00:10:16",1
"23/12/30","00:30",0.0,1.3,91.4,1017.3,322.6,1.8,2.4,331.4,0.00,0.1,7.1,"00:28:00",1
"23/12/30","00:40",0.0,1.0,91.8,1017.3,313.2,1.6,2.2,326.7,0.00,-0.1,6.9,"00:31:52",1
"23/12/30","00:50",0.0,0.9,92.2,1016.8,294.8,1.0,1.7,319.4,0.00,-0.2,7.1,"00:41:12",1
"23/12/30","01:00",0.0,0.8,92.5,1016.6,299.1,1.1,1.7,318.0,0.00,-0.2,7.1,"00:58:08",1
"23/12/30","01:10",0.0,1.1,92.8,1016.8,311.6,1.5,1.9,313.1,0.00,0.1,7.0,"01:08:32",1
"23/12/30","01:20",0.0,1.7,93.3,1017.3,311.0,2.1,3.3,320.6,0.00,0.8,7.1,"01:19:12",1
"23/12/30","01:30",0.0,2.1,93.1,1017.1,289.3,1.3,2.9,300.6,0.00,1.1,6.9,"01:21:04",1
"23/12/30","01:40",0.0,2.0,93.5,1017.1,294.9,0.8,1.8,314.2,0.00,1.1,6.9,"01:38:24",1
"23/12/30","01:50",0.0,1.9,93.7,1017.1,310.5,1.5,2.4,320.8,0.00,1.0,7.0,"01:45:12",1
"23/12/30","02:00",0.0,1.7,93.9,1017.1,293.3,1.2,1.4,313.0,0.00,0.9,6.9,"01:52:40",1
"23/12/30","02:10",0.0,1.6,94.1,1016.8,307.9,1.5,1.8,318.0,0.00,0.8,6.7,"02:02:00",1
"23/12/30","02:20",0.0,1.3,94.3,1017.1,313.7,1.6,2.5,323.2,0.00,0.5,6.7,"02:18:24",1
"23/12/30","02:30",0.0,0.9,94.6,1017.1,318.4,1.7,2.1,321.5,0.00,0.2,6.7,"02:25:12",1
"23/12/30","02:40",0.0,0.6,94.8,1017.1,318.4,2.0,2.2,323.2,0.00,-0.1,6.9,"02:33:20",1
"23/12/30","02:50",0.0,0.3,95.1,1016.8,300.8,1.1,1.7,310.7,0.00,-0.4,6.7,"02:40:32",1
"23/12/30","03:00",0.0,0.5,95.3,1016.8,294.6,1.1,1.8,315.5,0.00,-0.1,6.6,"02:57:36",1
"23/12/30","03:10",0.0,0.5,95.4,1016.8,319.7,1.8,2.4,316.4,0.00,-0.1,6.6,"03:05:28",1
"23/12/30","03:20",0.0,0.4,95.5,1016.4,312.6,1.5,2.5,306.8,0.00,-0.2,6.7,"03:19:44",1
"23/12/30","03:30",0.0,1.2,95.7,1016.4,296.1,1.8,2.7,318.1,0.00,0.6,6.6,"03:26:56",1
"23/12/30","03:40",0.0,1.4,95.7,1016.4,303.4,2.0,2.6,316.5,0.00,0.8,6.6,"03:31:12",1
"23/12/30","03:50",0.0,1.0,95.8,1016.4,306.3,1.2,1.7,325.3,0.00,0.4,6.3,"03:40:16",1
"23/12/30","04:00",0.0,0.8,96.0,1016.4,316.0,1.5,2.1,316.5,0.00,0.3,6.6,"03:58:32",1
"23/12/30","04:10",0.0,0.1,96.3,1016.1,314.7,1.8,2.2,324.2,0.00,-0.4,6.4,"04:08:56",1
"23/12/30","04:20",0.0,-0.2,96.6,1016.1,316.0,1.8,2.1,321.0,0.00,-0.6,6.2,"04:10:48",1
"23/12/30","04:30",0.0,-0.1,96.7,1015.9,312.9,1.6,2.0,319.8,0.00,-0.5,6.3,"04:23:20",1
"23/12/30","04:40",0.0,-0.2,96.8,1015.9,296.2,1.0,1.7,313.6,0.00,-0.6,6.4,"04:30:56",1
"23/12/30","04:50",0.0,-0.3,96.9,1016.4,303.8,1.3,2.4,319.9,0.00,-0.7,6.2,"04:48:16",1
"23/12/30","05:00",0.0,-0.6,97.1,1016.1,308.2,1.6,2.0,309.2,0.00,-1.0,6.3,"04:50:16",1
"23/12/30","05:10",0.0,-0.4,97.2,1016.4,305.9,1.1,2.7,324.5,0.00,-0.7,6.2,"05:00:02",1
"23/12/30","05:20",0.0,-0.5,97.3,1016.1,315.7,1.7,2.2,325.7,0.00,-0.8,6.2,"05:10:08",1
"23/12/30","05:30",0.0,-0.5,97.4,1016.1,301.7,1.3,2.1,321.6,0.00,-0.8,6.0,"05:22:48",1
"23/12/30","05:40",0.0,-0.5,97.4,1016.1,292.8,0.6,1.9,307.4,0.00,-0.8,6.0,"05:39:44",1
"23/12/30","05:50",0.0,-0.6,97.5,1016.1,312.4,1.8,2.4,324.2,0.00,-0.9,5.9,"05:47:04",1
"23/12/30","06:00",0.0,-0.8,97.7,1016.1,309.0,1.5,2.1,310.5,0.00,-1.1,6.0,"05:51:48",1
"23/12/30","06:10",0.0,-1.0,97.9,1016.1,316.0,1.0,1.8,321.3,0.00,-1.2,6.1,"06:00:16",1
"23/12/30","06:20",0.0,-0.8,98.0,1016.4,318.1,1.0,1.7,320.8,0.00,-1.0,5.9,"06:10:40",1
"23/12/30","06:30",0.0,-0.7,97.2,1016.6,291.0,0.3,0.9,325.5,0.00,-1.0,5.8,"06:20:40",1
"23/12/30","06:40",0.0,-0.7,98.0,1016.4,311.6,0.8,1.4,328.5,0.00,-0.9,6.0,"06:39:04",1
"23/12/30","06:50",0.0,-0.4,97.4,1016.4,311.0,1.6,2.2,310.3,0.00,-0.7,5.8,"06:43:34",1
"23/12/30","07:00",0.0,-0.7,98.1,1016.6,296.3,0.8,1.3,315.0,0.00,-0.9,5.7,"06:50:56",1
"23/12/30","07:10",0.0,-0.4,97.5,1016.4,261.4,0.3,1.0,263.1,0.00,-0.7,5.6,"07:07:52",1
"23/12/30","07:20",0.0,-1.0,98.2,1016.1,325.6,1.5,2.2,320.4,0.00,-1.2,5.6,"07:12:32",1
"23/12/30","07:30",0.0,-0.7,97.9,1016.4,318.6,1.3,2.0,289.9,0.00,-0.9,5.6,"07:28:40",1
"23/12/30","07:40",0.0,-0.5,98.4,1016.1,266.8,7.1,18.2,120.0,0.00,-0.7,5.8,"07:39:30",1
"23/12/30","07:50",0.0,-0.1,97.9,1015.9,302.3,2.8,18.2,120.1,0.01,-0.4,5.5,"07:40:14",1
"23/12/30","08:00",0.0,0.2,98.4,1016.1,312.6,1.5,2.7,315.4,0.03,0.0,5.8,"07:50:48",1
"23/12/30","08:10",0.0,0.7,97.9,1015.9,293.6,1.3,2.1,319.9,0.05,0.4,5.7,"08:03:28",1
"23/12/30","08:20",0.0,1.0,98.4,1016.4,251.8,0.6,1.0,274.8,0.07,0.8,5.7,"08:11:36",1
"23/12/30","08:30",0.0,1.8,97.8,1016.4,285.4,1.0,1.3,289.7,0.10,1.5,5.5,"08:20:24",1
"23/12/30","08:40",0.0,2.2,98.3,1017.1,279.1,1.1,1.7,304.3,0.12,2.0,5.5,"08:36:48",1
"23/12/30","08:50",0.0,3.2,97.5,1017.1,273.1,0.8,1.1,269.8,0.15,2.9,5.7,"08:40:32",1
"23/12/30","09:00",0.0,3.8,98.0,1017.5,251.1,0.5,0.9,234.3,0.17,3.6,5.6,"08:55:52",1
"23/12/30","09:10",0.0,4.5,97.4,1017.8,210.5,0.3,0.8,283.8,0.20,4.2,5.7,"09:06:26",1
"23/12/30","09:20",0.0,4.8,97.8,1018.2,295.2,0.5,1.0,270.0,0.22,4.5,5.6,"09:14:06",1
"23/12/30","09:30",0.0,5.6,97.6,1018.0,288.1,0.8,1.4,322.9,0.24,5.3,5.6,"09:20:36",1
"23/12/30","09:40",0.0,6.1,97.1,1018.2,319.2,0.6,1.7,310.3,0.27,5.7,5.7,"09:37:08",1
"23/12/30","09:50",0.0,6.1,96.6,1017.5,264.7,0.6,1.4,245.2,0.29,5.6,5.7,"09:44:08",1
"23/12/30","10:00",0.0,6.6,95.7,1018.2,238.0,0.6,1.6,260.9,0.31,6.0,6.0,"09:54:48",1
"23/12/30","10:10",0.0,7.2,95.1,1018.0,252.0,0.6,1.1,247.5,0.33,6.5,5.7,"10:02:24",1
"23/12/30","10:20",0.0,7.6,93.9,1018.0,231.4,0.7,1.7,198.3,0.35,6.7,5.9,"10:15:28",1
"23/12/30","10:30",0.0,8.3,91.4,1017.8,242.4,0.7,1.9,238.8,0.37,7.0,6.1,"10:24:26",1
"23/12/30","10:40",0.0,8.8,87.7,1017.5,191.7,0.7,2.0,118.4,0.38,6.9,6.2,"10:31:44",1
"23/12/30","10:50",0.0,9.3,81.9,1018.2,264.2,1.0,1.6,193.9,0.39,6.4,6.3,"10:40:08",1
"23/12/30","11:00",0.0,9.8,76.0,1018.0,204.6,0.8,1.9,119.2,0.40,5.8,6.4,"10:59:38",1
"23/12/30","11:10",0.0,10.1,72.1,1018.0,190.2,1.0,1.8,110.3,0.42,5.3,6.3,"11:08:24",1
"23/12/30","11:20",0.0,10.5,70.6,1017.5,200.9,0.8,2.1,212.6,0.41,5.4,6.4,"11:17:52",1
"23/12/30","11:30",0.0,11.0,68.4,1017.3,200.0,0.8,2.2,201.2,0.41,5.5,6.6,"11:29:28",1
"23/12/30","11:40",0.0,11.1,66.3,1017.1,170.6,1.0,2.0,115.8,0.45,5.1,6.7,"11:32:24",1
"23/12/30","11:50",0.0,11.1,65.7,1016.8,142.6,1.2,2.4,120.5,0.44,5.0,6.8,"11:41:20",1
"23/12/30","12:00",0.0,11.6,64.4,1016.4,221.7,1.0,2.1,236.6,0.44,5.2,6.8,"11:54:32",1
"23/12/30","12:10",0.0,11.8,63.6,1015.9,158.5,1.1,2.4,119.7,0.41,5.2,6.7,"12:09:04",1
"23/12/30","12:20",0.0,11.8,63.3,1015.6,181.4,0.8,2.1,126.2,0.33,5.1,7.0,"12:11:12",1
"23/12/30","12:30",0.0,11.9,63.1,1015.6,147.3,1.1,2.8,117.7,0.35,5.1,7.2,"12:23:28",1
"23/12/30","12:40",0.0,12.1,62.0,1015.4,175.8,1.1,2.5,198.1,0.35,5.1,7.2,"12:34:16",1
"23/12/30","12:50",0.0,12.5,61.1,1015.2,105.0,1.1,2.5,131.9,0.43,5.3,7.5,"12:48:00",1
"23/12/30","13:00",0.0,13.0,60.8,1015.2,153.7,1.1,2.4,109.4,0.44,5.7,7.4,"12:50:24",1
"23/12/30","13:10",0.0,13.3,57.8,1014.7,188.1,0.8,1.8,109.2,0.32,5.2,7.6,"13:00:48",1
"23/12/30","13:20",0.0,13.2,58.0,1014.2,258.1,0.8,3.1,96.2,0.33,5.2,7.6,"13:15:28",1
"23/12/30","13:30",0.0,13.6,56.7,1014.2,341.6,0.6,2.1,37.0,0.33,5.2,7.7,"13:27:20",1
"23/12/30","13:40",0.0,13.8,56.9,1013.8,346.8,1.3,2.2,356.7,0.38,5.5,7.9,"13:36:48",1
"23/12/30","13:50",0.0,14.1,55.3,1014.0,207.2,1.0,1.8,126.6,0.32,5.3,7.8,"13:42:24",1
"23/12/30","14:00",0.0,14.0,54.4,1013.8,199.3,1.0,2.5,236.3,0.26,5.0,8.1,"13:52:48",1
"23/12/30","14:10",0.0,13.5,54.5,1013.8,144.3,1.1,2.2,119.9,0.20,4.6,8.1,"14:04:24",1
"23/12/30","14:20",0.0,14.1,53.9,1013.3,273.2,0.7,1.3,258.5,0.26,5.0,8.3,"14:18:08",1
"23/12/30","14:30",0.0,14.2,52.6,1013.5,276.6,0.7,1.3,290.0,0.18,4.7,8.2,"14:25:52",1
"23/12/30","14:40",0.0,13.9,52.9,1012.8,149.1,1.0,2.2,126.6,0.21,4.5,8.4,"14:39:28",1
"23/12/30","14:50",0.0,13.5,52.9,1012.3,134.1,1.1,2.4,112.2,0.17,4.1,8.3,"14:47:12",1
"23/12/30","15:00",0.0,13.6,53.5,1012.3,171.7,0.7,1.7,118.5,0.16,4.4,8.4,"14:56:48",1
"23/12/30","15:10",0.0,13.8,51.6,1012.1,138.0,1.1,2.2,154.3,0.20,4.1,8.5,"15:04:08",1
"23/12/30","15:20",0.0,14.0,50.6,1012.1,150.8,1.1,2.5,112.6,0.20,4.0,8.6,"15:17:20",1
"23/12/30","15:30",0.0,13.9,50.9,1012.1,153.1,0.8,2.7,116.6,0.15,4.0,8.7,"15:24:16",1
"23/12/30","15:40",0.0,13.6,51.3,1012.8,159.7,1.0,2.4,128.7,0.10,3.8,8.8,"15:34:32",1
"23/12/30","15:50",0.0,13.1,53.2,1012.8,248.8,1.5,2.2,244.7,0.07,3.8,8.8,"15:41:38",1
"23/12/30","16:00",0.0,12.7,53.9,1013.0,244.6,1.3,1.8,255.0,0.02,3.7,8.8,"15:55:08",1
"23/12/30","16:10",0.0,12.5,55.9,1013.0,242.9,1.5,2.4,232.5,0.03,4.0,8.7,"16:04:18",1
"23/12/30","16:20",0.0,12.0,58.4,1013.3,285.3,1.3,2.1,317.3,0.01,4.1,8.6,"16:16:48",1
"23/12/30","16:30",0.0,11.2,61.3,1013.0,305.2,1.5,2.1,306.2,0.00,4.1,8.7,"16:29:40",1
"23/12/30","16:40",0.0,10.5,64.3,1013.0,304.3,1.5,1.9,320.0,0.00,4.1,8.8,"16:30:08",1
"23/12/30","16:50",0.0,9.8,67.1,1013.3,277.4,1.7,2.5,299.7,0.00,4.0,8.7,"16:40:02",1
"23/12/30","17:00",0.0,9.3,69.5,1013.5,298.4,1.8,2.8,336.8,0.00,4.1,8.6,"16:59:12",1
"23/12/30","17:10",0.0,8.9,70.7,1013.5,323.1,1.3,2.4,310.1,0.00,3.9,8.6,"17:00:40",1
"23/12/30","17:20",0.0,8.3,71.9,1013.5,320.0,1.7,2.6,332.5,0.00,3.6,8.6,"17:13:44",1
"23/12/30","17:30",0.0,8.1,73.2,1013.5,281.3,1.7,2.8,283.1,0.00,3.6,8.3,"17:24:24",1
"23/12/30","17:40",0.0,8.0,74.1,1013.5,301.2,2.0,2.8,308.6,0.00,3.7,8.4,"17:36:48",1
"23/12/30","17:50",0.0,7.6,74.9,1013.5,312.4,2.0,2.6,307.4,0.00,3.5,8.6,"17:48:08",1
"23/12/30","18:00",0.0,7.0,75.7,1013.5,298.1,1.3,2.2,307.7,0.00,3.0,8.4,"17:59:52",1
"23/12/30","18:10",0.0,7.3,77.1,1013.3,291.6,2.1,2.4,287.8,0.00,3.6,8.2,"18:03:44",1
"23/12/30","18:20",0.0,7.3,77.7,1013.0,291.0,1.1,2.4,313.8,0.00,3.7,8.4,"18:10:56",1
"23/12/30","18:30",0.0,7.2,78.6,1012.8,307.8,2.0,2.6,291.0,0.00,3.8,8.3,"18:23:44",1
"23/12/30","18:40",0.0,7.0,79.2,1012.8,307.3,1.7,2.6,314.5,0.00,3.7,8.2,"18:35:52",1
"23/12/30","18:50",0.0,6.9,80.1,1012.8,281.9,1.7,2.0,291.1,0.00,3.8,8.1,"18:44:24",1
"23/12/30","19:00",0.0,7.6,80.4,1012.6,315.4,2.2,3.1,312.7,0.00,4.5,8.2,"18:53:36",1
"23/12/30","19:10",0.0,7.6,80.3,1012.6,316.4,2.0,3.1,331.1,0.00,4.5,8.2,"19:04:56",1
"23/12/30","19:20",0.0,7.7,80.2,1012.3,295.5,2.0,2.5,276.3,0.00,4.5,8.2,"19:18:40",1
"23/12/30","19:30",0.0,8.2,79.4,1012.6,308.7,1.7,2.6,330.0,0.00,4.9,8.1,"19:23:12",1
"23/12/30","19:40",0.0,8.3,78.5,1012.6,336.8,0.7,1.9,314.4,0.00,4.8,8.1,"19:35:20",1
"23/12/30","19:50",0.0,8.1,78.5,1012.6,313.4,1.7,2.4,327.8,0.00,4.6,8.2,"19:47:28",1
"23/12/30","20:00",0.0,7.4,79.3,1012.1,289.1,1.2,2.6,326.4,0.00,4.1,8.1,"19:50:40",1
"23/12/30","20:10",0.0,6.9,80.6,1012.3,297.1,1.8,2.7,310.5,0.00,3.8,7.8,"20:08:40",1
"23/12/30","20:20",0.0,7.2,81.5,1012.3,316.4,2.3,3.9,319.1,0.00,4.3,8.2,"20:16:48",1
"23/12/30","20:30",0.0,7.2,81.7,1012.3,298.2,1.6,2.2,314.0,0.00,4.3,7.9,"20:22:48",1
"23/12/30","20:40",0.0,7.4,81.9,1013.0,299.6,2.2,3.1,316.9,0.00,4.6,8.2,"20:39:36",1
"23/12/30","20:50",0.0,7.7,81.5,1012.6,315.7,2.0,2.8,321.4,0.00,4.8,8.1,"20:49:04",1
"23/12/30","21:00",0.0,7.6,81.2,1012.8,306.0,1.7,2.5,319.8,0.00,4.6,8.0,"20:52:16",1
"23/12/30","21:10",0.0,7.7,81.2,1012.3,281.7,1.6,2.0,266.6,0.00,4.7,8.0,"21:02:00",1
"23/12/30","21:20",0.0,7.9,80.8,1012.1,302.3,1.6,2.4,319.5,0.00,4.8,7.9,"21:18:32",1
"23/12/30","21:30",0.0,7.6,80.9,1011.9,301.7,1.6,2.5,308.3,0.00,4.6,7.9,"21:20:24",1
"23/12/30","21:40",0.0,7.5,81.4,1012.1,299.2,0.8,1.6,310.4,0.00,4.6,8.2,"21:32:56",1
"23/12/30","21:50",0.0,7.6,82.0,1012.1,317.4,2.0,2.9,326.6,0.00,4.8,8.1,"21:49:44",1
"23/12/30","22:00",0.0,7.4,82.6,1012.1,296.5,1.7,2.6,314.8,0.00,4.7,8.0,"21:52:00",1
"23/12/30","22:10",0.0,7.4,83.1,1011.9,310.3,1.6,2.2,319.4,0.00,4.8,7.8,"22:06:24",1
"23/12/30","22:20",0.0,7.6,83.3,1011.9,298.9,1.1,2.1,314.1,0.00,5.0,8.2,"22:11:04",1
"23/12/30","22:30",0.0,7.8,83.3,1011.4,295.4,1.8,2.7,302.6,0.00,5.2,7.9,"22:24:56",1
"23/12/30","22:40",0.0,8.0,82.8,1011.6,299.5,2.0,2.9,303.8,0.00,5.3,7.9,"22:38:56",1
"23/12/30","22:50",0.0,8.3,81.7,1010.9,318.5,1.5,3.1,315.7,0.00,5.4,8.1,"22:42:00",1
"23/12/30","23:00",0.0,8.4,80.9,1010.7,299.3,1.6,2.1,321.6,0.00,5.4,8.0,"22:52:40",1
"23/12/30","23:10",0.0,8.5,80.3,1010.7,318.3,2.0,2.8,318.3,0.00,5.3,7.9,"23:03:36",1
"23/12/30","23:20",0.0,8.6,80.0,1010.9,319.6,1.5,2.0,310.6,0.00,5.4,8.0,"23:11:44",1
"23/12/30","23:30",0.0,8.5,80.0,1010.7,307.9,1.5,2.1,319.1,0.00,5.3,7.9,"23:22:24",1
"23/12/30","23:40",0.0,8.4,80.6,1010.4,314.6,0.7,1.3,260.6,0.00,5.3,8.1,"23:35:20",1
"23/12/30","23:50",0.0,8.3,81.2,1010.7,308.8,1.2,2.0,301.5,0.00,5.3,8.1,"23:43:44",1
"23/12/30","24:00",0.0,8.2,81.7,1010.2,301.9,1.5,2.1,318.5,0.00,5.3,8.1,"23:55:52",1
